GW5686 Weather Reports


time (UTC)temp
C
wind
direction
speed
KPH
gust
KPH
rain 1hr
cm
rain 24hr
cm
rain mn
cm
humidity
%
barometer
mb
20260508122245 8 354 8.0 11.3 0.00 0.00 0.00 70 1002.5
20260508121742 8 36 11.3 17.7 0.00 0.00 0.00 68 1002.5
20260508121241 8 264 11.3 16.1 0.00 0.00 0.00 69 1002.3
20260508120738 8 317 4.8 12.9 0.00 0.00 0.00 70 1002.3
20260508120237 7 308 9.7 17.7 0.00 0.00 0.00 70 1002.3
20260508115733 7 287 9.7 17.7 0.00 0.00 0.00 72 1002.4
20260508115231 7 329 8.0 16.1 0.00 0.00 0.00 72 1002.1
20260508114727 7 286 6.4 14.5 0.00 0.00 0.00 71 1002.2
20260508114224 7 318 8.0 12.9 0.00 0.00 0.00 72 1002.3
20260508113720 7 320 4.8 12.9 0.00 0.00 0.00 72 1002.4
20260508113219 7 322 8.0 12.9 0.00 0.00 0.00 72 1002.1
20260508112714 6 307 4.8 12.9 0.00 0.00 0.00 73 1002.4
20260508112212 6 322 6.4 11.3 0.00 0.00 0.00 73 1002.1
20260508111708 6 338 4.8 11.3 0.00 0.00 0.00 73 1002.1
20260508111206 6 292 11.3 14.5 0.00 0.00 0.00 73 1002.1
20260508110703 6 308 8.0 11.3 0.00 0.00 0.00 74 1002.2
20260508110200 5 332 8.0 11.3 0.00 0.00 0.00 74 1002.0
20260508105700 5 336 8.0 11.3 0.00 0.00 0.00 74 1001.9
20260508105157 5 338 6.4 6.4 0.00 0.00 0.00 74 1002.1
20260508104655 5 315 1.6 4.8 0.00 0.00 0.00 74 1002.1
20260508104151 5 1 1.6 4.8 0.00 0.00 0.00 75 1002.1
20260508103648 4 352 1.6 11.3 0.00 0.00 0.00 77 1002.1
20260508103146 4 3 0.0 1.6 0.00 0.00 0.00 78 1002.2
20260508102642 3 78 1.6 1.6 0.00 0.00 0.00 79 1002.2
20260508102141 3 52 0.0 0.0 0.00 0.00 0.00 80 1002.1
20260508101637 3 42 0.0 1.6 0.00 0.00 0.00 81 1002.3
20260508101135 3 300 3.2 6.4 0.00 0.00 0.00 83 1002.3
20260508100632 2 24 1.6 1.6 0.00 0.00 0.00 84 1002.4
20260508100130 2 73 1.6 3.2 0.00 0.00 0.00 85 1002.5
20260508095627 2 76 0.0 0.0 0.00 0.00 0.00 85 1002.4
20260508095124 2 359 0.0 0.0 0.00 0.00 0.00 86 1002.4
20260508094621 2 95 0.0 0.0 0.00 0.00 0.00 86 1002.3
20260508094117 1 125 0.0 0.0 0.00 0.00 0.00 87 1002.3
20260508093615 1 204 0.0 3.2 0.00 0.00 0.00 87 1002.3
20260508093112 1 53 1.6 1.6 0.00 0.00 0.00 87 1002.1
20260508092609 1 324 1.6 1.6 0.00 0.00 0.00 88 1002.5
20260508092108 1 79 0.0 0.0 0.00 0.00 0.00 88 1002.4
20260508091604 1 79 0.0 0.0 0.00 0.00 0.00 89 1002.4
20260508091101 1 35 0.0 0.0 0.00 0.00 0.00 89 1002.3
20260508090600 1 76 0.0 0.0 0.00 0.00 0.00 89 1002.1
20260508090056 0 48 0.0 0.0 0.00 0.00 0.00 89 1002.3
20260508085552 0 48 0.0 0.0 0.00 0.00 0.00 88 1002.3
20260508085050 0 48 0.0 0.0 0.00 0.00 0.00 87 1002.3
20260508084546 1 34 0.0 0.0 0.00 0.00 0.00 86 1002.2
20260508084044 1 34 0.0 0.0 0.00 0.00 0.00 86 1002.2
20260508083541 1 28 0.0 0.0 0.00 0.00 0.00 87 1001.9
20260508083038 1 29 0.0 0.0 0.00 0.00 0.00 86 1002.1
20260508082534 1 29 0.0 0.0 0.00 0.00 0.00 86 1002.2
20260508082031 1 29 0.0 0.0 0.00 0.00 0.00 86 1002.1
20260508081528 1 26 0.0 0.0 0.00 0.00 0.00 86 1002.0
20260508081024 1 26 0.0 0.0 0.00 0.00 0.00 85 1001.8
20260508080522 1 26 0.0 0.0 0.00 0.00 0.00 85 1002.1
20260508080019 1 3 0.0 0.0 0.00 0.00 0.00 84 1001.6
20260508075516 1 355 0.0 0.0 0.00 0.00 0.00 85 1001.8
20260508075014 1 341 0.0 0.0 0.00 0.00 0.00 85 1001.9
20260508074511 1 51 0.0 0.0 0.00 0.00 0.00 86 1001.7
20260508074008 1 51 0.0 0.0 0.00 0.00 0.00 85 1001.8
20260508073505 1 51 0.0 0.0 0.00 0.00 0.00 86 1001.8
20260508073002 1 47 0.0 0.0 0.00 0.00 0.00 86 1001.8
20260508072458 1 12 0.0 0.0 0.00 0.00 0.00 85 1001.7
20260508071955 2 12 0.0 0.0 0.00 0.00 0.00 84 1002.1
20260508071453 2 45 0.0 0.0 0.00 0.00 0.00 84 1001.9
20260508070951 2 45 0.0 0.0 0.00 0.00 0.00 82 1002.0
20260508070448 2 45 0.0 0.0 0.00 0.00 0.00 81 1001.8
20260508065946 2 24 0.0 0.0 0.00 0.00 0.00 81 1001.8
20260508065444 2 12 0.0 0.0 0.00 0.00 0.00 79 1001.9
20260508064942 3 358 0.0 0.0 0.00 0.00 0.00 76 1001.9
20260508064439 3 67 0.0 0.0 0.00 0.00 0.00 74 1002.0
20260508063937 3 43 0.0 1.6 0.00 0.00 0.00 76 1002.0
20260508063434 3 60 0.0 3.2 0.00 0.00 0.00 80 1001.8
20260508062931 3 59 0.0 0.0 0.00 0.00 0.00 81 1001.9
20260508062429 3 4 0.0 0.0 0.00 0.00 0.00 79 1001.7
20260508061926 3 19 1.6 1.6 0.00 0.00 0.00 79 1001.9
20260508061424 3 308 0.0 0.0 0.00 0.00 0.00 75 1001.7
20260508060919 3 14 1.6 1.6 0.00 0.00 0.00 73 1001.9
20260508060417 4 54 1.6 1.6 0.00 0.00 0.00 72 1001.9
20260508055913 4 356 0.0 0.0 0.00 0.00 0.00 71 1002.1
20260508055410 5 292 1.6 1.6 0.00 0.00 0.00 69 1001.7
20260508054906 4 57 1.6 3.2 0.00 0.00 0.00 70 1001.9
20260508054404 5 7 0.0 0.0 0.00 0.00 0.00 69 1001.9
20260508053900 5 33 0.0 1.6 0.00 0.00 0.00 68 1001.8
20260508053358 5 357 0.0 3.2 0.00 0.00 0.00 68 1001.9
20260508052855 5 47 0.0 4.8 0.00 0.00 0.00 68 1002.1
20260508052353 5 345 1.6 4.8 0.00 0.00 0.00 69 1002.0
20260508051849 5 20 1.6 6.4 0.00 0.00 0.00 70 1001.9
20260508051344 5 354 0.0 3.2 0.00 0.00 0.00 72 1002.2
20260508050840 5 325 4.8 4.8 0.00 0.00 0.00 71 1002.1
20260508050338 5 32 0.0 1.6 0.00 0.00 0.00 70 1002.2
20260508045833 5 77 1.6 3.2 0.00 0.00 0.00 69 1002.3
20260508045331 5 37 3.2 6.4 0.00 0.00 0.00 68 1002.2
20260508044829 5 331 4.8 6.4 0.00 0.00 0.00 69 1002.4
20260508044325 5 314 3.2 4.8 0.00 0.00 0.00 69 1002.0
20260508043821 5 12 3.2 6.4 0.00 0.00 0.00 69 1002.2
20260508043319 5 323 8.0 11.3 0.00 0.00 0.00 72 1002.4
20260508042815 5 348 1.6 4.8 0.00 0.00 0.00 71 1002.4
20260508042313 5 22 3.2 4.8 0.00 0.00 0.00 72 1002.6
20260508041809 5 52 3.2 3.2 0.00 0.00 0.00 71 1002.5
20260508041306 5 46 1.6 3.2 0.00 0.00 0.00 72 1002.4
20260508040802 5 41 0.0 1.6 0.00 0.00 0.00 73 1002.4
20260508040300 5 14 0.0 0.0 0.00 0.00 0.00 75 1002.5
20260508035757 5 28 0.0 0.0 0.00 0.48 0.48 75 1002.3
20260508035254 5 297 0.0 0.0 0.00 0.48 0.48 74 1002.5
20260508034751 6 56 0.0 0.0 0.00 0.48 0.48 72 1002.6
20260508034248 6 324 0.0 1.6 0.00 0.48 0.48 72 1002.6
20260508033745 5 49 1.6 3.2 0.00 0.48 0.48 76 1002.5
20260508033243 5 29 0.0 1.6 0.00 0.48 0.48 77 1002.4
20260508032741 6 332 0.0 0.0 0.00 0.48 0.48 77 1002.3
20260508032238 6 28 0.0 1.6 0.00 0.48 0.48 77 1002.2
20260508031734 6 25 0.0 0.0 0.00 0.48 0.48 76 1002.2
20260508031231 6 37 0.0 1.6 0.00 0.48 0.48 75 1002.0
20260508030727 7 307 3.2 4.8 0.00 0.48 0.48 73 1002.3
20260508030225 7 1 0.0 1.6 0.00 0.48 0.48 74 1002.1
20260508025721 7 322 1.6 3.2 0.00 0.48 0.48 74 1002.1
20260508025218 7 328 1.6 6.4 0.00 0.48 0.48 75 1001.9
20260508024714 7 329 0.0 3.2 0.00 0.48 0.48 76 1001.9
20260508024211 7 311 4.8 4.8 0.00 0.48 0.48 76 1001.9
20260508023707 7 333 3.2 9.7 0.00 0.48 0.48 76 1002.1
20260508023206 7 347 4.8 4.8 0.00 0.48 0.48 77 1001.7
20260508022701 8 4 1.6 9.7 0.00 0.48 0.48 76 1002.0
20260508022158 8 7 4.8 11.3 0.00 0.48 0.48 76 1001.8
20260508021654 8 334 3.2 6.4 0.00 0.48 0.48 77 1001.8
20260508021150 8 346 6.4 9.7 0.00 0.48 0.48 76 1002.1
20260508020648 8 293 3.2 12.9 0.00 0.48 0.48 76 1001.9
20260508020145 8 309 4.8 6.4 0.00 0.48 0.48 79 1002.0
20260508015642 8 307 9.7 24.1 0.00 0.48 0.48 81 1001.9
20260508015139 8 331 12.9 22.5 0.00 0.48 0.48 83 1002.2
20260508014636 8 310 8.0 11.3 0.00 0.48 0.48 87 1001.8
20260508014132 9 348 3.2 9.7 0.00 0.48 0.48 86 1002.0
20260508013628 9 340 4.8 14.5 0.00 0.48 0.48 87 1002.0
20260508013125 9 350 6.4 12.9 0.00 0.48 0.48 85 1001.9
20260508012623 10 305 11.3 17.7 0.00 0.48 0.48 82 1001.8
20260508012120 10 285 11.3 20.9 0.00 0.48 0.48 78 1001.8
20260508011618 10 287 9.7 16.1 0.00 0.48 0.48 75 1001.4
20260508011115 10 312 11.3 12.9 0.00 0.48 0.48 75 1001.5
20260508010611 11 341 9.7 20.9 0.00 0.48 0.48 75 1001.3
20260508010110 10 321 16.1 24.1 0.00 0.48 0.48 75 1001.1
20260508005606 10 322 4.8 12.9 0.00 0.48 0.48 75 1001.1
20260508005102 10 346 3.2 4.8 0.00 0.48 0.48 79 1000.7
20260508004558 10 26 0.0 0.0 0.00 0.48 0.48 81 1000.7
20260508004055 9 35 0.0 3.2 0.00 0.48 0.48 81 1000.7
20260508003552 10 14 0.0 0.0 0.00 0.48 0.48 80 1000.6
20260508003049 10 16 0.0 0.0 0.00 0.48 0.48 78 1000.6
20260508002545 10 14 0.0 1.6 0.00 0.48 0.48 77 1000.5
20260508002043 11 324 1.6 3.2 0.00 0.48 0.48 76 1000.1
20260508001538 11 342 0.0 3.2 0.00 0.48 0.48 77 1000.2
20260508001035 11 307 3.2 9.7 0.00 0.48 0.48 76 1000.2
20260508000531 11 315 4.8 9.7 0.00 0.48 0.48 77 1000.1
20260508000029 11 274 6.4 6.4 0.00 0.48 0.48 77 1000.2
20260507235525 11 335 8.0 12.9 0.00 0.48 0.48 77 1000.1
20260507235022 11 351 6.4 6.4 0.00 0.48 0.48 77 1000.2
20260507234519 11 352 3.2 9.7 0.00 0.48 0.48 76 1000.3
20260507234015 11 287 8.0 9.7 0.00 0.48 0.48 76 1000.4
20260507233512 11 343 11.3 12.9 0.00 0.48 0.48 75 1000.2
20260507233011 11 326 4.8 12.9 0.00 0.48 0.48 74 1000.1
20260507232506 12 321 6.4 11.3 0.00 0.48 0.48 74 1000.0
20260507232004 12 330 6.4 11.3 0.00 0.48 0.48 74 1000.1
20260507231500 12 317 4.8 12.9 0.00 0.48 0.48 73 1000.2
20260507230957 12 312 3.2 9.7 0.00 0.48 0.48 73 1000.0
20260507230454 12 12 4.8 11.3 0.00 0.48 0.48 72 999.9
20260507225949 12 359 14.5 22.5 0.00 0.48 0.48 71 999.5
20260507225446 12 355 6.4 9.7 0.00 0.48 0.48 71 999.6
20260507224942 13 311 14.5 17.7 0.00 0.48 0.48 69 999.7
20260507224438 13 13 3.2 6.4 0.00 0.48 0.48 65 999.5
20260507223935 13 281 0.0 3.2 0.00 0.48 0.48 65 999.1
20260507223431 13 109 0.0 1.6 0.00 0.48 0.48 65 999.3
20260507222928 13 46 0.0 1.6 0.00 0.48 0.48 65 999.2
20260507222425 13 141 0.0 0.0 0.00 0.48 0.48 64 999.2
20260507221921 13 350 1.6 4.8 0.00 0.48 0.48 63 999.1
20260507221418 13 306 1.6 4.8 0.00 0.48 0.48 62 998.9
20260507220914 13 262 3.2 3.2 0.00 0.48 0.48 63 999.0
20260507220412 13 310 0.0 4.8 0.00 0.48 0.48 63 998.8
20260507215908 13 52 1.6 4.8 0.00 0.48 0.48 62 998.7
20260507215405 13 119 3.2 9.7 0.00 0.48 0.48 62 999.1
20260507214902 14 188 4.8 9.7 0.00 0.48 0.48 63 999.0
20260507214400 13 122 0.0 3.2 0.00 0.48 0.48 63 999.0
20260507213855 13 231 1.6 4.8 0.00 0.48 0.48 66 999.0
20260507213352 13 271 0.0 4.8 0.00 0.48 0.48 66 998.9
20260507212849 13 258 3.2 9.7 0.00 0.48 0.48 65 998.9
20260507212345 13 195 1.6 3.2 0.00 0.48 0.48 65 999.0
20260507211842 13 224 1.6 6.4 0.00 0.48 0.48 66 998.9
20260507211339 13 130 3.2 16.1 0.00 0.48 0.48 65 998.7
20260507210835 12 220 6.4 14.5 0.00 0.48 0.48 66 998.6
20260507210332 12 99 3.2 11.3 0.00 0.48 0.48 66 998.8
20260507205829 12 224 6.4 12.9 0.00 0.48 0.48 65 998.7
20260507205326 13 167 8.0 11.3 0.00 0.48 0.48 66 999.0
20260507204822 13 49 8.0 11.3 0.00 0.48 0.48 66 998.9
20260507204319 13 16 6.4 9.7 0.00 0.48 0.48 67 998.8
20260507203817 12 127 8.0 11.3 0.00 0.48 0.48 67 998.6
20260507203315 12 92 3.2 12.9 0.00 0.48 0.48 67 999.0
20260507202811 13 191 6.4 12.9 0.00 0.48 0.48 68 998.7
20260507202307 13 193 3.2 11.3 0.00 0.48 0.48 67 998.8
20260507201802 13 283 6.4 11.3 0.00 0.48 0.48 65 998.6
20260507201258 13 139 9.7 11.3 0.00 0.48 0.48 67 998.6
20260507200755 13 243 6.4 12.9 0.00 0.48 0.48 67 998.8
20260507200251 13 173 8.0 16.1 0.00 0.48 0.48 65 998.9
20260507195747 13 87 6.4 12.9 0.00 0.48 0.48 66 998.7
20260507195245 14 181 11.3 20.9 0.00 0.48 0.48 63 998.8
20260507194742 15 96 6.4 11.3 0.00 0.48 0.48 63 998.6
20260507194238 15 62 11.3 17.7 0.00 0.48 0.48 62 998.5
20260507193734 15 147 8.0 14.5 0.00 0.48 0.48 66 998.8
20260507193231 14 134 8.0 12.9 0.00 0.48 0.48 67 998.7
20260507192727 14 119 4.8 12.9 0.00 0.48 0.48 68 998.8
20260507192224 14 128 6.4 11.3 0.00 0.48 0.48 67 998.9
20260507191720 13 150 9.7 14.5 0.00 0.48 0.48 67 998.8
20260507191218 14 159 8.0 20.9 0.00 0.48 0.48 67 998.6
20260507190714 15 19 8.0 12.9 0.00 0.48 0.48 65 998.9
20260507190213 13 139 4.8 16.1 0.00 0.48 0.48 69 999.2
20260507185711 14 175 6.4 17.7 0.00 0.48 0.48 67 999.2
20260507185208 15 138 11.3 14.5 0.00 0.48 0.48 67 999.1
20260507184705 14 205 6.4 17.7 0.00 0.48 0.48 68 998.9
20260507184203 14 128 11.3 12.9 0.00 0.48 0.48 69 998.9
20260507183654 13 130 9.7 16.1 0.00 0.48 0.48 72 999.0
20260507183151 14 181 14.5 17.7 0.00 0.48 0.48 69 999.0
20260507182648 14 166 12.9 17.7 0.00 0.48 0.48 70 999.1
20260507182143 13 145 16.1 17.7 0.00 0.48 0.48 72 999.2
20260507181640 14 101 9.7 16.1 0.00 0.48 0.48 70 999.2
20260507181137 14 152 9.7 16.1 0.00 0.48 0.48 70 999.1
20260507180633 14 154 9.7 12.9 0.00 0.48 0.48 71 999.3
20260507180131 13 160 9.7 17.7 0.00 0.48 0.48 71 999.0
20260507175626 14 154 6.4 12.9 0.00 0.48 0.48 70 999.0
20260507175124 14 178 9.7 12.9 0.00 0.48 0.48 72 999.0
20260507174620 15 126 11.3 16.1 0.00 0.48 0.48 68 999.1
20260507174119 15 130 8.0 16.1 0.00 0.48 0.48 69 999.3
20260507173615 15 109 6.4 16.1 0.00 0.48 0.48 65 999.0
20260507173112 14 153 9.7 11.3 0.00 0.48 0.48 68 999.2
20260507172608 15 128 8.0 9.7 0.00 0.48 0.48 68 998.9
20260507172106 14 235 4.8 12.9 0.00 0.48 0.48 69 999.1
20260507171601 14 165 6.4 14.5 0.00 0.48 0.48 70 999.3
20260507171058 14 130 11.3 12.9 0.00 0.48 0.48 69 999.4
20260507170555 15 154 9.7 12.9 0.00 0.48 0.48 68 999.4
20260507170052 15 312 4.8 4.8 0.00 0.48 0.48 55 999.5
20260507165547 15 170 1.6 3.2 0.00 0.48 0.48 55 999.4
20260507165044 16 269 4.8 9.7 0.00 0.48 0.48 56 999.2
20260507164540 16 161 0.0 1.6 0.00 0.48 0.48 54 999.2
20260507164037 15 304 3.2 9.7 0.00 0.48 0.48 57 999.6
20260507163535 15 298 3.2 11.3 0.00 0.48 0.48 60 999.4
20260507163032 15 306 3.2 6.4 0.00 0.48 0.48 60 999.6
20260507162527 14 317 8.0 9.7 0.00 0.48 0.48 60 999.5
20260507162024 14 354 3.2 6.4 0.00 0.48 0.48 59 999.6
20260507161520 13 328 9.7 12.9 0.00 0.48 0.48 63 1000.0
20260507161018 13 7 4.8 12.9 0.00 0.48 0.48 63 1000.0
20260507160513 14 332 3.2 11.3 0.00 0.48 0.48 68 1000.0
20260507160010 13 47 4.8 12.9 0.00 0.48 0.48 65 1000.1
20260507155505 12 29 6.4 6.4 0.00 0.48 0.48 68 1000.2
20260507155003 12 305 6.4 9.7 0.00 0.48 0.48 71 1000.4
20260507154459 12 32 4.8 6.4 0.00 0.48 0.48 70 1000.6
20260507153956 12 282 8.0 11.3 0.00 0.48 0.48 70 1000.7
20260507153453 12 308 6.4 9.7 0.00 0.48 0.48 74 1000.9
20260507152949 12 352 3.2 14.5 0.00 0.48 0.48 75 1000.9
20260507152445 12 325 3.2 4.8 0.00 0.48 0.48 77 1000.4
20260507151942 12 113 1.6 11.3 0.00 0.48 0.48 76 1000.4
20260507151438 11 287 3.2 6.4 0.00 0.48 0.48 78 1000.3
20260507150935 11 340 4.8 9.7 0.00 0.48 0.48 78 1000.4
20260507150432 11 37 1.6 11.3 0.00 0.48 0.48 77 1000.7
20260507145928 11 331 4.8 4.8 0.00 0.48 0.48 83 1000.4
20260507145424 11 1 4.8 9.7 0.00 0.48 0.48 82 1000.7
20260507144921 10 333 3.2 4.8 0.00 0.48 0.48 82 1001.1
20260507144418 10 36 6.4 11.3 0.00 0.48 0.48 85 1000.8
20260507143915 10 295 3.2 6.4 0.00 0.48 0.48 85 1001.2
20260507143413 10 330 8.0 9.7 0.00 0.48 0.48 85 1001.0
20260507142909 10 332 1.6 6.4 0.00 0.48 0.48 87 1001.2
20260507142404 11 110 1.6 4.8 0.00 0.48 0.48 86 1001.3
20260507141902 10 323 6.4 11.3 0.00 0.48 0.48 87 1001.2
20260507141358 10 316 3.2 6.4 0.00 0.48 0.48 89 1001.4
20260507140855 9 18 8.0 9.7 0.13 0.48 0.48 89 1001.4
20260507140352 10 339 12.9 14.5 0.13 0.48 0.48 91 1001.6
20260507135849 9 335 4.8 4.8 0.00 0.46 0.46 92 1001.6
20260507135346 9 346 4.8 6.4 0.00 0.46 0.46 91 1002.3
20260507134843 10 353 4.8 9.7 0.00 0.46 0.46 91 1001.8
20260507134339 9 308 6.4 9.7 0.00 0.46 0.46 93 1001.8
20260507133835 9 303 8.0 12.9 0.00 0.46 0.46 93 1001.3
20260507133331 9 302 4.8 9.7 0.00 0.46 0.46 94 1001.2
20260507132830 9 326 4.8 11.3 0.00 0.46 0.46 94 1001.3
20260507132326 9 315 3.2 6.4 0.00 0.46 0.46 94 1001.3
20260507131823 8 2 1.6 4.8 0.00 0.46 0.46 95 1001.4
20260507131320 8 329 4.8 6.4 0.00 0.46 0.46 94 1001.5
20260507130816 8 348 3.2 6.4 0.00 0.46 0.46 95 1001.7
20260507130314 8 343 4.8 9.7 0.00 0.46 0.46 95 1001.4
20260507125813 8 1 3.2 4.8 0.00 0.46 0.46 96 1001.4
20260507125310 8 325 3.2 4.8 0.00 0.46 0.46 96 1001.3
20260507124807 8 322 6.4 11.3 0.00 0.46 0.46 96 1001.1
20260507124303 8 341 3.2 6.4 0.00 0.46 0.46 97 1001.4
20260507123802 8 40 3.2 4.8 0.00 0.46 0.46 97 1001.3
20260507123258 8 0 11.3 14.5 0.00 0.46 0.46 97 1001.9
20260507122754 8 318 8.0 12.9 0.00 0.46 0.46 97 1001.9